Hourly Weather Świnoujście

Today, 14 July, Tuesday

Time Temperature Precipitation Wind Pressure Humidity
00:00 +14°C° 0 mm 2 mps 764 mmHg 78%
01:00 +13°C° 0 mm 3 mps 763 mmHg 80%
02:00 +13°C° 0 mm 3 mps 763 mmHg 81%
03:00 +13°C° 0 mm 3 mps 763 mmHg 83%
04:00 +12°C° 0 mm 4 mps 762 mmHg 84%
05:00 +14°C° 0 mm 4 mps 762 mmHg 80%
06:00 +15°C° 0 mm 4 mps 762 mmHg 76%
07:00 +18°C° 0 mm 4 mps 762 mmHg 71%
08:00 +19°C° 0 mm 4 mps 761 mmHg 67%
09:00 +21°C° 0 mm 3 mps 761 mmHg 63%
10:00 +22°C° 0 mm 3 mps 761 mmHg 59%
11:00 +24°C° 0 mm 3 mps 760 mmHg 57%
12:00 +25°C° 0 mm 3 mps 760 mmHg 54%
13:00 +25°C° 0 mm 3 mps 760 mmHg 52%
14:00 +25°C° 0.1 mm 3 mps 759 mmHg 53%
15:00 +25°C° 0.1 mm 3 mps 759 mmHg 55%
16:00 +25°C° 0.1 mm 4 mps 758 mmHg 56%
17:00 +23°C° 0.7 mm 4 mps 758 mmHg 65%
18:00 +21°C° 0.7 mm 4 mps 758 mmHg 74%
19:00 +19°C° 0.7 mm 4 mps 758 mmHg 83%
20:00 +18°C° 0.4 mm 3 mps 758 mmHg 86%
21:00 +18°C° 0.4 mm 2 mps 758 mmHg 88%
22:00 +18°C° 0.4 mm 1 mps 758 mmHg 91%
23:00 +18°C° 0.2 mm 1 mps 758 mmHg 91%

Tomorrow, 15 July, Wednesday

Time Temperature Precipitation Wind Pressure Humidity
00:00 +18°C° 0.2 mm 1 mps 758 mmHg 92%
01:00 +16°C° 0.2 mm 2 mps 759 mmHg 92%
02:00 +16°C° 0.1 mm 2 mps 758 mmHg 92%
03:00 +16°C° 0.1 mm 2 mps 758 mmHg 92%
04:00 +16°C° 0.1 mm 2 mps 758 mmHg 92%
05:00 +16°C° 0.4 mm 2 mps 758 mmHg 92%
06:00 +16°C° 0.4 mm 2 mps 758 mmHg 92%
07:00 +17°C° 0.4 mm 3 mps 758 mmHg 92%
08:00 +16°C° 0.9 mm 2 mps 758 mmHg 93%
09:00 +16°C° 0.9 mm 2 mps 758 mmHg 93%
10:00 +16°C° 0.9 mm 2 mps 758 mmHg 93%
11:00 +17°C° 0.3 mm 2 mps 758 mmHg 88%
12:00 +18°C° 0.3 mm 2 mps 758 mmHg 84%
13:00 +20°C° 0.3 mm 1 mps 758 mmHg 80%
14:00 +19°C° 0.2 mm 2 mps 758 mmHg 80%
15:00 +19°C° 0.2 mm 2 mps 757 mmHg 81%
16:00 +19°C° 0.2 mm 3 mps 757 mmHg 82%
17:00 +18°C° 1.2 mm 3 mps 757 mmHg 86%
18:00 +17°C° 1.2 mm 3 mps 757 mmHg 89%
19:00 +16°C° 1.2 mm 3 mps 757 mmHg 93%
20:00 +16°C° 0.6 mm 3 mps 758 mmHg 92%
21:00 +15°C° 0.6 mm 2 mps 758 mmHg 91%
22:00 +15°C° 0.6 mm 2 mps 758 mmHg 91%
23:00 +15°C° 0 mm 2 mps 758 mmHg 91%

Day after tomorrow, 16 July, Thursday

Time Temperature Precipitation Wind Pressure Humidity
00:00 +13°C° 0 mm 3 mps 758 mmHg 91%
01:00 +13°C° 0 mm 3 mps 758 mmHg 92%
02:00 +13°C° 0 mm 3 mps 758 mmHg 92%
03:00 +13°C° 0 mm 4 mps 758 mmHg 92%
04:00 +13°C° 0 mm 4 mps 758 mmHg 92%
05:00 +14°C° 0.2 mm 4 mps 758 mmHg 89%
06:00 +15°C° 0.2 mm 5 mps 758 mmHg 86%
07:00 +16°C° 0.2 mm 5 mps 758 mmHg 83%
08:00 +16°C° 0.6 mm 5 mps 758 mmHg 81%
09:00 +17°C° 0.6 mm 6 mps 758 mmHg 78%
10:00 +17°C° 0.6 mm 6 mps 758 mmHg 76%
11:00 +17°C° 0.5 mm 6 mps 758 mmHg 76%
12:00 +18°C° 0.5 mm 7 mps 759 mmHg 76%
13:00 +18°C° 0.5 mm 7 mps 759 mmHg 76%
14:00 +18°C° 0.4 mm 7 mps 759 mmHg 75%
15:00 +18°C° 0.4 mm 7 mps 758 mmHg 74%
16:00 +18°C° 0.4 mm 7 mps 758 mmHg 74%
17:00 +17°C° 0.1 mm 7 mps 758 mmHg 74%
18:00 +17°C° 0.1 mm 6 mps 758 mmHg 75%
19:00 +17°C° 0.1 mm 6 mps 758 mmHg 76%
20:00 +16°C° 0.2 mm 6 mps 758 mmHg 80%
21:00 +15°C° 0.2 mm 6 mps 759 mmHg 84%
22:00 +15°C° 0.2 mm 6 mps 759 mmHg 88%
23:00 +15°C° 0.2 mm 6 mps 759 mmHg 89%

17 July, Friday

Time Temperature Precipitation Wind Pressure Humidity
00:00 +15°C° 0.2 mm 5 mps 759 mmHg 90%
01:00 +15°C° 0.2 mm 5 mps 759 mmHg 91%
02:00 +15°C° 0.1 mm 5 mps 759 mmHg 92%
03:00 +15°C° 0.1 mm 5 mps 759 mmHg 92%
04:00 +15°C° 0.1 mm 5 mps 759 mmHg 93%
05:00 +16°C° 0.1 mm 5 mps 759 mmHg 91%
06:00 +16°C° 0.1 mm 5 mps 759 mmHg 90%
07:00 +17°C° 0.1 mm 5 mps 759 mmHg 88%
08:00 +17°C° 0.1 mm 5 mps 759 mmHg 85%
09:00 +19°C° 0.1 mm 5 mps 760 mmHg 82%
10:00 +19°C° 0.1 mm 5 mps 760 mmHg 78%
11:00 +19°C° 0 mm 4 mps 760 mmHg 77%
12:00 +20°C° 0 mm 4 mps 760 mmHg 75%
13:00 +20°C° 0 mm 4 mps 760 mmHg 74%
14:00 +20°C° 0 mm 4 mps 760 mmHg 74%
15:00 +20°C° 0 mm 4 mps 760 mmHg 74%
16:00 +20°C° 0 mm 4 mps 760 mmHg 74%
17:00 +20°C° 0 mm 4 mps 760 mmHg 77%
18:00 +19°C° 0 mm 4 mps 761 mmHg 79%
19:00 +19°C° 0 mm 3 mps 761 mmHg 82%
20:00 +18°C° 0 mm 3 mps 761 mmHg 85%
21:00 +17°C° 0 mm 3 mps 762 mmHg 89%
22:00 +17°C° 0 mm 3 mps 762 mmHg 92%
23:00 +17°C° 0 mm 3 mps 762 mmHg 92%

18 July, Saturday

Time Temperature Precipitation Wind Pressure Humidity
00:00 +16°C° 0 mm 3 mps 762 mmHg 92%
01:00 +16°C° 0 mm 2 mps 762 mmHg 92%
02:00 +16°C° 0 mm 2 mps 762 mmHg 92%
03:00 +16°C° 0 mm 2 mps 762 mmHg 93%
04:00 +16°C° 0 mm 2 mps 762 mmHg 93%
05:00 +17°C° 0 mm 2 mps 762 mmHg 89%
06:00 +18°C° 0 mm 2 mps 762 mmHg 86%
07:00 +19°C° 0 mm 3 mps 763 mmHg 83%
08:00 +20°C° 0 mm 3 mps 762 mmHg 78%
09:00 +20°C° 0 mm 3 mps 762 mmHg 73%
10:00 +21°C° 0 mm 3 mps 762 mmHg 68%
11:00 +21°C° 0 mm 3 mps 762 mmHg 66%
12:00 +22°C° 0 mm 4 mps 762 mmHg 65%
13:00 +22°C° 0 mm 4 mps 762 mmHg 63%
14:00 +22°C° 0 mm 4 mps 762 mmHg 64%
15:00 +22°C° 0 mm 5 mps 762 mmHg 65%
16:00 +21°C° 0 mm 5 mps 761 mmHg 66%
17:00 +21°C° 0 mm 5 mps 761 mmHg 70%
18:00 +20°C° 0 mm 4 mps 761 mmHg 73%
19:00 +20°C° 0 mm 4 mps 761 mmHg 77%
20:00 +19°C° 0 mm 4 mps 761 mmHg 80%
21:00 +18°C° 0 mm 3 mps 761 mmHg 84%
22:00 +17°C° 0 mm 3 mps 761 mmHg 87%
23:00 +17°C° 0 mm 3 mps 761 mmHg 87%

19 July, Sunday

Time Temperature Precipitation Wind Pressure Humidity
00:00 +17°C° 0 mm 3 mps 761 mmHg 88%
01:00 +16°C° 0 mm 3 mps 761 mmHg 88%
02:00 +16°C° 0 mm 2 mps 761 mmHg 89%
03:00 +16°C° 0 mm 2 mps 760 mmHg 90%
04:00 +16°C° 0 mm 1 mps 760 mmHg 90%
05:00 +18°C° 0 mm 1 mps 760 mmHg 86%
06:00 +19°C° 0 mm 1 mps 760 mmHg 83%
07:00 +20°C° 0 mm 1 mps 760 mmHg 79%
08:00 +21°C° 0 mm 1 mps 760 mmHg 74%
09:00 +23°C° 0 mm 1 mps 760 mmHg 69%
10:00 +24°C° 0 mm 1 mps 760 mmHg 65%
11:00 +24°C° 0 mm 1 mps 759 mmHg 63%
12:00 +24°C° 0 mm 2 mps 759 mmHg 61%
13:00 +25°C° 0 mm 2 mps 759 mmHg 60%
14:00 +24°C° 0 mm 2 mps 758 mmHg 61%
15:00 +24°C° 0 mm 3 mps 758 mmHg 62%
16:00 +24°C° 0 mm 3 mps 758 mmHg 63%
17:00 +22°C° 0 mm 3 mps 758 mmHg 67%
18:00 +21°C° 0 mm 2 mps 758 mmHg 72%
19:00 +21°C° 0 mm 2 mps 758 mmHg 76%
20:00 +20°C° 0 mm 2 mps 758 mmHg 78%
21:00 +19°C° 0 mm 2 mps 758 mmHg 79%
22:00 +20°C° 0 mm 1 mps 758 mmHg 81%
23:00 +20°C° 0.2 mm 1 mps 758 mmHg 83%
Show more